Miscellaneous Local Product
Issued by NWS Hastings, NE

Home | Current Version | Previous Version | Graphics & Text | Print | Product List | Glossary On
Versions: 1 2 3 4 5 6 7 8 9 10 11 12 13 14 15 16 17 18 19 20 21 22 23 24 25 26 27 28 29 30 31 32 33 34 35 36 37 38 39 40 41 42 43 44 45 46 47 48 49 50
000
AXUS43 KGID 031502
MISGRI

GID CWA HOURLY WEATHER ROUNDUP
NATIONAL WEATHER SERVICE HASTINGS NE
900 AM CST SAT DEC 03 2016

NOTE: "FAIR" INDICATES FEW OR NO CLOUDS BELOW 12,000 FEET WITH NO
SIGNIFICANT WEATHER AND/OR OBSTRUCTIONS TO VISIBILITY.

...SOUTH CENTRAL NEBRASKA...

CITY           SKY/WX    TMP DP  RH WIND       PRES   REMARKS
GRAND ISLAND   CLOUDY    31  29  92 S9        30.22R WCI  23
HASTINGS       CLOUDY    31  27  85 S5        30.23R WCI  26
KEARNEY        CLOUDY    30  27  86 S10       30.20S WCI  21
ORD            CLOUDY    32  25  75 S7        30.16S WCI  26
YORK           CLOUDY    30  28  93 S6        30.24R WCI  24
AURORA         CLOUDY    31  28  91 S6        30.23R WCI  25
LEXINGTON      CLOUDY    32  26  79 S7        30.17S WCI  26
HOLDREGE       FLURRIES  31  27  85 S6        30.19S WCI  25
HEBRON         LGT SNOW  32  29  90 S5        30.26R WCI  27

...NEBRASKA PANHANDLE...

CITY           SKY/WX    TMP DP  RH WIND       PRES   REMARKS
CHADRON        CLEAR     26  14  60 SW9       29.96F WCI  17
ALLIANCE       CLEAR     24  19  81 S13       29.99S WCI  12
SCOTTSBLUFF    CLEAR     19  13  77 E6        30.00F WCI  11
SIDNEY         CLEAR     24  19  81 SW14      30.03S WCI  12

...WESTERN AND NORTH CENTRAL NEBRASKA...

CITY           SKY/WX    TMP DP  RH WIND       PRES   REMARKS
VALENTINE      CLOUDY    35  26  69 S13       30.04F WCI  26
AINSWORTH      CLOUDY    34  28  78 S7        30.08S WCI  28
ONEILL         CLOUDY    31  29  92 S5        30.14S WCI  27
BROKEN BOW     CLOUDY    32  27  81 S8        30.13S WCI  25
IMPERIAL       CLEAR     27  20  75 S8        30.11S WCI  19
NORTH PLATTE   CLOUDY    33  24  69 S12       30.12R WCI  24
MCCOOK         CLOUDY    28  23  81 CALM      30.15F

...EASTERN NEBRASKA...

CITY           SKY/WX    TMP DP  RH WIND       PRES   REMARKS
NORFOLK        CLOUDY    28  25  88 S8        30.21R WCI  20
SO SIOUX CITY  CLOUDY    29  26  89 SE7       30.26F WCI  22
TEKAMAH        MOSUNNY   27  26  96 SE3       30.27F
COLUMBUS       CLOUDY    27  25  93 CALM      30.24S
ALBION         CLOUDY    28  25  90 SE6       30.19S FOG     WCI  21
OMAHA EPPLEY   CLOUDY    27  24  89 CALM      30.27F
OFFUTT AFB     CLOUDY    28  28 100 E1        30.27S
MILLARD        CLOUDY    28  26  91 CALM      30.27F
LINCOLN        CLOUDY    28  25  88 CALM      30.28R
NEBRASKA CITY  PTSUNNY   29  29  99 CALM      30.28R
BEATRICE       CLOUDY    32  30  91 S7        30.26R WCI  26
FALLS CITY       N/A    N/A N/A N/A MISG      30.28S

...NORTHERN KANSAS...

CITY           SKY/WX    TMP DP  RH WIND       PRES   REMARKS
GOODLAND       PTSUNNY   27  18  69 SW9       30.11F WCI  18
HILL CITY      LGT SNOW  31  28  89 CALM      30.22R FOG
NORTON         CLOUDY    34  27  75 SE6       30.19R WCI  29
PHILLIPSBURG   FLURRIES  30  30 100 CALM      30.24R
SMITH CENTER   LGT SNOW  30  28  93 SE3       30.25R
BELOIT         CLOUDY    32  28  86 CALM      30.25R
HAYS           MIX PCPN  32  30  92 N6        30.21R FOG     WCI  26
RUSSELL        FLURRIES  33  29  85 CALM      30.21R
CONCORDIA      LGT RAIN  32  29  88 E7        30.24S WCI  26
SALINA         FLURRIES  37  29  72 E5        30.24S WCI  33
TOPEKA         CLOUDY    35  30  82 E6        30.28S WCI  30



USA.gov is the U.S. government's official web portal to all federal, state and local government web resources and services.